Weather History for Juliana Airport, St. Martin

Change the Weather History Date:

Friday, August 15, 2014

  Actual Average Record
Temperature  
Mean Temperature 85 °F -  
Max Temperature 89 °F 87 °F 91 °F (2013)
Min Temperature 81 °F 78 °F 76 °F (2012)
Cooling Degree Days 20    
Growing Degree Days 35 (Base 50)    
Moisture  
Dew Point 73 °F    
Average Humidity 67    
Maximum Humidity 79    
Minimum Humidity 51    
Precipitation  
Precipitation 0.00 in 0.15 in - ()
Sea Level Pressure  
Sea Level Pressure 30.03 in    
Wind  
Wind Speed 11 mph ()    
Max Wind Speed 17 mph    
Max Gust Speed 24 mph    
Visibility 7.3 miles    
Events Rain    
Averages and records for this station are not official NWS values.
T = Trace of Precipitation, MM = Missing Value Source: Averaged Metar Reports

Daily Weather History Graph

Daily Weather History Graph

Search for Another Location

Airport:

Trip Planner

Search our weather history database for the weather conditions in past years. The results will help you decide how hot, cold, wet, or windy it might be!

Date:

Astronomy

Aug. 15, 2014 Rise Set
Actual Time 5:54 AM AST 6:38 PM AST
Civil Twilight 5:32 AM AST 7:01 PM AST
Nautical Twilight 5:05 AM AST 7:27 PM AST
Astronomical Twilight 4:38 AM AST 7:54 PM AST
Moon 10:34 PM AST (8/15) 10:39 AM AST (8/15)
Length of Visible Light 13h 29m
Length of Day
12h 44m
Waning Gibbous, 69% of the Moon is Illuminated
Aug 15
Waning Gibbous
Aug 17
Last Quarter
Aug 25
New
Sep 2
First Quarter
Sep 8
Full

Hourly Weather History & Observations

Time (AST) Temp. Heat Index Dew Point Humidity Pressure Visibility Wind Dir Wind Speed Gust Speed Precip Events Conditions
12:00 AM 82.4 °F 88.2 °F 73.4 °F 74% 30.04 in 6.2 mi ENE 10.4 mph - N/A   Scattered Clouds
1:00 AM 82.4 °F 87.2 °F 71.6 °F 70% 30.04 in 6.2 mi ENE 9.2 mph - N/A   Partly Cloudy
2:00 AM 82 °F - 72 °F 65% 30.03 in 19 mi ENE 10.4 mph - -   Scattered Clouds
2:00 AM 82.4 °F 87.2 °F 71.6 °F 70% 30.01 in 6.2 mi ENE 10.4 mph - N/A   Partly Cloudy
3:00 AM 82.4 °F 87.2 °F 71.6 °F 70% 30.01 in 6.2 mi ENE 10.4 mph 24.2 mph N/A   Partly Cloudy
4:00 AM 82.4 °F 87.2 °F 71.6 °F 70% 30.01 in 6.2 mi ENE 8.1 mph - N/A   Partly Cloudy
5:00 AM 82 °F - 72 °F 65% 30.03 in 19 mi ENE 8.1 mph - -   Partly Cloudy
5:00 AM 82.4 °F 87.2 °F 71.6 °F 70% 30.01 in 6.2 mi ENE 8.1 mph - N/A   Partly Cloudy
6:00 AM 82.4 °F 87.2 °F 71.6 °F 70% 30.04 in 6.2 mi ENE 10.4 mph - N/A   Scattered Clouds
7:00 AM 82.4 °F 87.2 °F 71.6 °F 70% 30.04 in 6.2 mi ENE 15.0 mph - N/A   Partly Cloudy
8:00 AM 83 °F - 72 °F 63% 30.06 in 12 mi ENE 13.8 mph - -   Partly Cloudy
8:00 AM 84.2 °F 90.9 °F 73.4 °F 70% 30.04 in 6.2 mi ENE 13.8 mph - N/A   Scattered Clouds
9:00 AM 86.0 °F 93.4 °F 73.4 °F 66% 30.06 in 5.6 mi ENE 12.7 mph - N/A   Mostly Cloudy
9:21 AM 84.2 °F 90.9 °F 73.4 °F 70% 30.06 in 1.9 mi ENE 13.8 mph - N/A Rain Rain Showers
10:00 AM 86.0 °F 95.1 °F 75.2 °F 70% 30.06 in 6.2 mi ENE 13.8 mph - N/A   Scattered Clouds
11:00 AM 86 °F - 73 °F 57% 30.07 in 12 mi East 13.8 mph - -   Partly Cloudy
11:00 AM 86.0 °F 93.4 °F 73.4 °F 66% 30.06 in 6.2 mi East 13.8 mph - N/A   Mostly Cloudy
12:00 PM 87.8 °F 93.8 °F 71.6 °F 58% 30.04 in 6.2 mi ENE 17.3 mph - N/A   Mostly Cloudy
1:00 PM 87.8 °F 92.6 °F 69.8 °F 55% 30.04 in 6.2 mi East 15.0 mph - N/A   Scattered Clouds
2:00 PM 87 °F - 72 °F 51% 30.02 in 25 mi East 15.0 mph - -   Partly Cloudy
2:00 PM 87.8 °F 93.8 °F 71.6 °F 58% 30.01 in 6.2 mi ENE 15.0 mph - N/A   Mostly Cloudy
3:00 PM 87.8 °F 93.8 °F 71.6 °F 58% 30.01 in 6.2 mi East 17.3 mph - N/A   Scattered Clouds
4:00 PM 86.0 °F 93.4 °F 73.4 °F 66% 29.98 in 6.2 mi ENE 17.3 mph - N/A   Mostly Cloudy
5:00 PM 86 °F - 74 °F 60% 30.00 in 25 mi ENE 15.0 mph - -   Partly Cloudy
5:00 PM 86.0 °F 93.4 °F 73.4 °F 66% 29.98 in 6.2 mi ENE 16.1 mph - N/A   Scattered Clouds
6:00 PM 84.2 °F 90.9 °F 73.4 °F 70% 30.01 in 6.2 mi East 11.5 mph - N/A   Scattered Clouds
7:00 PM 84.2 °F 90.9 °F 73.4 °F 70% 30.01 in 6.2 mi ENE 13.8 mph - N/A   Mostly Cloudy
8:00 PM 83 °F - 74 °F 68% 30.04 in 22 mi East 10.4 mph - -   Partly Cloudy
8:00 PM 82.4 °F 88.2 °F 73.4 °F 74% 30.04 in 6.2 mi East 11.5 mph - N/A   Scattered Clouds
9:00 PM 82.4 °F 89.5 °F 75.2 °F 79% 30.04 in 6.2 mi ENE 11.5 mph - N/A   Mostly Cloudy
10:00 PM 82.4 °F 89.5 °F 75.2 °F 79% 30.04 in 6.2 mi ENE 11.5 mph - N/A   Mostly Cloudy
11:00 PM 83 °F - 74 °F 69% 30.06 in 22 mi ENE 16.1 mph - -   Partly Cloudy
11:00 PM 82.4 °F 89.5 °F 75.2 °F 79% 30.04 in 6.2 mi ENE 16.1 mph - N/A   Scattered Clouds